• Join FlightAware (Why Join?)
  • Login
  • US Flag GB Flag 
13:33 EDT


 

Airport Tracker/Info


-or-


 

Live Flight TrackerFlight Track Log ✈ N1926A ✈ 01-May-2013 ✈ KJKA - 41A

Flight Track Log - Related Links

Times and Time Zones

All times are in EDT time to prevent confusion due to time zone crossing. See the N1926A flight status page for this flight to view local times or setup timezone preferences in your user account.

Time Position Orientation Groundspeed Altitude Reporting Facility
EDT Latitude Longitude Course Direction KTS MPH feet Rate Location/Type
15:50 30.2878 -87.6625 North 131 151 800  Level Jacksonville Center
15:51 30.3319 -87.6597 North 197 227 2,900 1,800 Climbing Jacksonville Center
15:52 30.3825 -87.6478 12° North 194 223 4,500 1,680 Climbing Jacksonville Center
15:53 30.4147 -87.6181 38° Northeast 198 228 5,800 1,860 Climbing Jacksonville Center
15:53 30.4358 -87.6119 14° North 207 238 6,600 2,100 Climbing Jacksonville Center
15:54 30.4714 -87.6114 North 203 234 7,900 2,220 Climbing Jacksonville Center
15:55 30.5256 -87.6117 360° North 208 239 10,100 2,040 Climbing Jacksonville Center
15:56 30.5747 -87.5828 27° Northeast 197 227 12,000 1,920 Climbing Jacksonville Center
15:57 30.6078 -87.5311 53° Northeast 183 211 14,000 1,440 Climbing Jacksonville Center
15:58 30.6456 -87.4678 55° Northeast 204 235 14,900 420 Climbing Jacksonville Center
15:59 30.6878 -87.3997 54° Northeast 233 268 14,900  Level Jacksonville Center
16:00 30.7400 -87.3372 46° Northeast 250 288 14,900  Level Jacksonville Center
16:01 30.7925 -87.2742 46° Northeast 262 302 14,900  Level Jacksonville Center
16:02 30.8664 -87.2461 18° North 262 302 14,900  Level Jacksonville Center
16:03 30.9344 -87.2058 27° Northeast 262 302 14,900  Level Jacksonville Center
16:04 31.0008 -87.1578 32° Northeast 272 313 14,900  Level Jacksonville Center
16:05 31.0650 -87.1122 31° Northeast 272 313 14,900  Level Jacksonville Center
16:06 31.1253 -87.0592 37° Northeast 267 307 14,900  Level Jacksonville Center
16:07 31.1875 -87.0086 35° Northeast 267 307 14,900  Level Jacksonville Center
16:09 31.3442 -86.8933 32° Northeast 274 315 15,000  Climbing Atlanta Center
16:10 31.4119 -86.8517 28° Northeast 274 315 15,000  Level Atlanta Center
16:11 31.4633 -86.7994 41° Northeast 274 315 15,000  Level Atlanta Center
16:12 31.5208 -86.7428 40° Northeast 269 310 15,000  Level Atlanta Center
16:13 31.5847 -86.6911 35° Northeast 269 310 15,000  Level Atlanta Center
16:14 31.6461 -86.6442 33° Northeast 269 310 15,000 -300 Level Atlanta Center
16:15 31.7097 -86.5922 35° Northeast 269 310 14,500 -540 Descending Atlanta Center
16:16 31.7756 -86.5381 35° Northeast 269 310 14,000 -900 Descending Atlanta Center
16:17 31.8414 -86.4786 37° Northeast 274 315 12,800 -1,020 Descending Atlanta Center
16:18 31.9072 -86.4217 36° Northeast 280 322 12,000 -1,320 Descending Atlanta Center
16:19 31.9733 -86.3597 38° Northeast 286 329 10,200 -1,740 Descending Atlanta Center
16:20 32.0389 -86.3053 35° Northeast 291 335 8,600 -1,680 Descending Atlanta Center
16:21 32.1025 -86.2506 36° Northeast 291 335 6,900 -1,500 Descending Atlanta Center
16:22 32.1619 -86.1931 39° Northeast 284 327 5,700 -900 Descending Atlanta Center
16:23 32.2278 -86.1356 36° Northeast 272 313 5,100 -600 Descending Atlanta Center
16:25 32.2799 -86.0757 44° Northeast  Level FlightAware Approximate